When you browse on this site, cookies collect data to enhance your experience and personalize the content and advertising you see.
Visit our Privacy Policy to learn more. By continuing to use the site, you agree to this use of cookies and data.
  • In France
  • List of Countries
  • For 7 days
  • Water Temperature
  • Satellite Maps
  • Weather Map
  • Weather Widgets
  • user-avatar
    Login

    Hourly Weather Man

    Today, 20 November, Tuesday

    Time Temperature Precipitation Wind Pressure Humidity
    00:00 +23°C° 0 mm 0 mps 726 mmHg 92%
    01:00 +22°C° 0 mm 0 mps 725 mmHg 92%
    02:00 +22°C° 0 mm 0 mps 725 mmHg 93%
    03:00 +22°C° 0.1 mm 0 mps 725 mmHg 93%
    04:00 +22°C° 0.1 mm 0 mps 725 mmHg 94%
    05:00 +22°C° 0 mm 0 mps 725 mmHg 94%
    06:00 +23°C° 0 mm 0 mps 726 mmHg 87%
    07:00 +25°C° 0 mm 0 mps 726 mmHg 80%
    08:00 +27°C° 0 mm 0 mps 727 mmHg 74%
    09:00 +29°C° 0 mm 0 mps 726 mmHg 64%
    10:00 +33°C° 0 mm 1 mps 726 mmHg 54%
    11:00 +35°C° 0 mm 1 mps 726 mmHg 45%
    12:00 +35°C° 0 mm 1 mps 726 mmHg 44%
    13:00 +35°C° 0 mm 1 mps 725 mmHg 43%
    14:00 +36°C° 0 mm 2 mps 724 mmHg 43%
    15:00 +33°C° 0 mm 1 mps 724 mmHg 50%
    16:00 +31°C° 0 mm 1 mps 724 mmHg 57%
    17:00 +28°C° 0 mm 0 mps 724 mmHg 65%
    18:00 +27°C° 0.2 mm 0 mps 725 mmHg 69%
    19:00 +26°C° 0.2 mm 0 mps 725 mmHg 72%
    20:00 +25°C° 0.2 mm 0 mps 726 mmHg 76%
    21:00 +24°C° 1.8 mm 0 mps 726 mmHg 82%
    22:00 +23°C° 1.8 mm 0 mps 726 mmHg 88%
    23:00 +25°C° 1.8 mm 1 mps 726 mmHg 95%

    Tomorrow, 21 November, Wednesday

    Time Temperature Precipitation Wind Pressure Humidity
    00:00 +23°C° 1.1 mm 0 mps 726 mmHg 94%
    01:00 +22°C° 1.1 mm 0 mps 726 mmHg 94%
    02:00 +22°C° 1.1 mm 0 mps 726 mmHg 94%
    03:00 +22°C° 0 mm 0 mps 726 mmHg 94%
    04:00 +22°C° 0 mm 0 mps 726 mmHg 95%
    05:00 +22°C° 0 mm 0 mps 726 mmHg 95%
    06:00 +23°C° 0.2 mm 0 mps 726 mmHg 92%
    07:00 +24°C° 0.2 mm 0 mps 727 mmHg 89%
    08:00 +25°C° 0.2 mm 0 mps 727 mmHg 86%
    09:00 +27°C° 0.5 mm 0 mps 727 mmHg 75%
    10:00 +31°C° 0.5 mm 1 mps 727 mmHg 64%
    11:00 +34°C° 0.5 mm 1 mps 727 mmHg 53%
    12:00 +34°C° 0 mm 1 mps 726 mmHg 51%
    13:00 +34°C° 0 mm 1 mps 725 mmHg 49%
    14:00 +34°C° 0 mm 1 mps 725 mmHg 47%
    15:00 +32°C° 0.3 mm 1 mps 725 mmHg 56%
    16:00 +30°C° 0.3 mm 1 mps 725 mmHg 65%
    17:00 +28°C° 0.3 mm 1 mps 725 mmHg 73%
    18:00 +27°C° 0.2 mm 1 mps 725 mmHg 77%
    19:00 +27°C° 0.2 mm 1 mps 726 mmHg 81%
    20:00 +26°C° 0.2 mm 1 mps 726 mmHg 84%
    21:00 +26°C° 0 mm 1 mps 726 mmHg 87%
    22:00 +25°C° 0 mm 1 mps 726 mmHg 89%
    23:00 +23°C° 0 mm 0 mps 726 mmHg 92%

    Day after tomorrow, 22 November, Thursday

    Time Temperature Precipitation Wind Pressure Humidity
    00:00 +22°C° 0 mm 0 mps 726 mmHg 93%
    01:00 +22°C° 0 mm 0 mps 725 mmHg 95%
    02:00 +22°C° 0 mm 0 mps 725 mmHg 97%
    03:00 +21°C° 0 mm 0 mps 725 mmHg 97%
    04:00 +21°C° 0 mm 0 mps 725 mmHg 98%
    05:00 +21°C° 0 mm 0 mps 725 mmHg 98%
    06:00 +25°C° 0 mm 1 mps 726 mmHg 91%
    07:00 +26°C° 0 mm 1 mps 726 mmHg 84%
    08:00 +28°C° 0 mm 1 mps 727 mmHg 76%
    09:00 +31°C° 0 mm 1 mps 727 mmHg 66%
    10:00 +33°C° 0 mm 1 mps 726 mmHg 55%
    11:00 +33°C° 0 mm 0 mps 726 mmHg 44%
    12:00 +34°C° 0 mm 0 mps 725 mmHg 41%
    13:00 +36°C° 0 mm 1 mps 724 mmHg 38%
    14:00 +36°C° 0 mm 1 mps 724 mmHg 35%
    15:00 +34°C° 0 mm 1 mps 724 mmHg 43%
    16:00 +31°C° 0 mm 1 mps 723 mmHg 51%
    17:00 +27°C° 0 mm 0 mps 723 mmHg 59%
    18:00 +26°C° 0 mm 0 mps 724 mmHg 61%
    19:00 +25°C° 0 mm 0 mps 725 mmHg 64%
    20:00 +24°C° 0 mm 0 mps 725 mmHg 66%
    21:00 +24°C° 0 mm 0 mps 725 mmHg 70%
    22:00 +25°C° 0 mm 1 mps 725 mmHg 74%
    23:00 +25°C° 0 mm 1 mps 725 mmHg 78%

    23 November, Friday

    Time Temperature Precipitation Wind Pressure Humidity
    00:00 +24°C° 0 mm 1 mps 725 mmHg 82%
    01:00 +24°C° 0 mm 1 mps 724 mmHg 86%
    02:00 +23°C° 0 mm 1 mps 724 mmHg 91%
    03:00 +23°C° 0 mm 1 mps 724 mmHg 92%
    04:00 +23°C° 0 mm 1 mps 724 mmHg 94%
    05:00 +23°C° 0 mm 1 mps 724 mmHg 96%
    06:00 +25°C° 0 mm 1 mps 725 mmHg 90%
    07:00 +26°C° 0 mm 1 mps 726 mmHg 83%
    08:00 +28°C° 0 mm 1 mps 726 mmHg 76%
    09:00 +30°C° 0 mm 1 mps 726 mmHg 69%
    10:00 +31°C° 0 mm 1 mps 726 mmHg 62%
    11:00 +33°C° 0 mm 1 mps 726 mmHg 54%
    12:00 +33°C° 0.2 mm 1 mps 725 mmHg 55%
    13:00 +33°C° 0.2 mm 1 mps 724 mmHg 56%
    14:00 +33°C° 0.2 mm 1 mps 723 mmHg 57%
    15:00 +31°C° 0.4 mm 1 mps 723 mmHg 64%
    16:00 +29°C° 0.4 mm 1 mps 723 mmHg 71%
    17:00 +28°C° 0.4 mm 1 mps 723 mmHg 79%
    18:00 +27°C° 0 mm 1 mps 724 mmHg 81%
    19:00 +26°C° 0 mm 1 mps 725 mmHg 84%
    20:00 +23°C° 0 mm 0 mps 725 mmHg 86%
    21:00 +23°C° 0 mm 0 mps 725 mmHg 88%
    22:00 +23°C° 0 mm 0 mps 725 mmHg 89%
    23:00 +24°C° 0 mm 1 mps 725 mmHg 90%

    24 November, Saturday

    Time Temperature Precipitation Wind Pressure Humidity
    00:00 +22°C° 0.3 mm 0 mps 725 mmHg 92%
    01:00 +22°C° 0.3 mm 0 mps 724 mmHg 94%
    02:00 +21°C° 0.3 mm 0 mps 724 mmHg 95%
    03:00 +21°C° 0.2 mm 0 mps 724 mmHg 96%
    04:00 +21°C° 0.2 mm 0 mps 725 mmHg 97%
    05:00 +21°C° 0.2 mm 0 mps 725 mmHg 97%
    06:00 +23°C° 0.1 mm 0 mps 725 mmHg 91%
    07:00 +26°C° 0.1 mm 1 mps 726 mmHg 84%
    08:00 +28°C° 0.1 mm 1 mps 727 mmHg 77%
    09:00 +31°C° 0.2 mm 1 mps 726 mmHg 66%
    10:00 +33°C° 0.2 mm 1 mps 726 mmHg 56%
    11:00 +36°C° 0.2 mm 1 mps 726 mmHg 45%
    12:00 +35°C° 0 mm 1 mps 725 mmHg 44%
    13:00 +35°C° 0 mm 1 mps 724 mmHg 43%
    14:00 +35°C° 0 mm 1 mps 723 mmHg 41%
    15:00 +33°C° 0 mm 1 mps 723 mmHg 48%
    16:00 +32°C° 0 mm 1 mps 723 mmHg 55%
    17:00 +28°C° 0 mm 0 mps 723 mmHg 61%
    18:00 +27°C° 0 mm 0 mps 724 mmHg 64%
    19:00 +26°C° 0 mm 0 mps 725 mmHg 67%
    20:00 +25°C° 0 mm 0 mps 725 mmHg 70%
    21:00 +25°C° 0 mm 0 mps 725 mmHg 74%
    22:00 +24°C° 0 mm 0 mps 725 mmHg 77%
    23:00 +25°C° 0 mm 1 mps 725 mmHg 81%

    25 November, Sunday

    Time Temperature Precipitation Wind Pressure Humidity
    00:00 +25°C° 0 mm 1 mps 725 mmHg 84%
    01:00 +25°C° 0 mm 1 mps 724 mmHg 87%
    02:00 +24°C° 0 mm 1 mps 724 mmHg 90%
    03:00 +24°C° 0 mm 1 mps 724 mmHg 92%
    04:00 +24°C° 0 mm 1 mps 724 mmHg 94%
    05:00 +24°C° 0 mm 1 mps 725 mmHg 95%
    06:00 +25°C° 0 mm 1 mps 725 mmHg 90%
    07:00 +26°C° 0 mm 1 mps 726 mmHg 85%
    08:00 +28°C° 0 mm 1 mps 726 mmHg 79%
    09:00 +30°C° 0.3 mm 1 mps 726 mmHg 73%
    10:00 +31°C° 0.3 mm 1 mps 726 mmHg 66%
    11:00 +33°C° 0.3 mm 1 mps 725 mmHg 59%
    12:00 +34°C° 0.3 mm 1 mps 724 mmHg 57%
    13:00 +34°C° 0.3 mm 1 mps 724 mmHg 55%
    14:00 +34°C° 0.3 mm 1 mps 723 mmHg 53%
    15:00 +32°C° 0.6 mm 1 mps 723 mmHg 63%
    16:00 +30°C° 0.6 mm 1 mps 723 mmHg 73%
    17:00 +28°C° 0.6 mm 1 mps 723 mmHg 84%
    18:00 +27°C° 0.2 mm 1 mps 724 mmHg 87%
    19:00 +26°C° 0.2 mm 1 mps 724 mmHg 89%
    20:00 +26°C° 0.2 mm 1 mps 725 mmHg 92%
    21:00 +25°C° 0.6 mm 1 mps 725 mmHg 93%
    22:00 +25°C° 0.6 mm 1 mps 724 mmHg 94%
    23:00 +25°C° 0.6 mm 1 mps 724 mmHg 95%
    Show more